Hourly Weather Roundup
Issued by NWS Central Illinois

Home | Current Version | Previous Version | Text Only | Print | Product List | Glossary On
Versions: 1 2 3 4 5 6 7 8 9 10 11 12 13 14 15 16 17 18 19 20 21 22 23 24 25 26 27 28 29 30 31 32 33 34 35 36 37 38 39 40 41 42 43 44 45 46 47 48 49 50
663
NZUS43 KILX 281410
HWRILX

AREA WEATHER ROUNDUP
NATIONAL WEATHER SERVICE, LINCOLN IL
900 AM CDT WED SEP 28 2016


CITY           SKY/WX    TMP DP  RH WIND       PRES   REMARKS
BLOOMINGTON    CLOUDY    53  46  77 N17       29.87R
CHAMPAIGN      CLOUDY    55  46  71 N15       29.83R
DANVILLE       PTSUNNY   55  50  86 NW7       29.79R
DECATUR        CLOUDY    56  46  69 N16       29.86R
EFFINGHAM      CLOUDY    61  55  80 NW16G22   29.82R
FLORA          CLOUDY    62  56  79 W8        29.81R
GALESBURG      CLOUDY    51  44  78 N16       29.94R
JACKSONVILLE   SUNNY     57  45  64 N21G26    29.90R
LACON          CLOUDY    51  44  77 N8G16     29.90R
LAWRENCEVILLE  CLOUDY    62  54  74 W6        29.79R
LITCHFIELD     CLOUDY    57  45  63 N20       29.87R
$$


CITY           SKY/WX    TMP DP  RH WIND       PRES   REMARKS
LINCOLN        LGT RAIN  55  47  74 N12G20    29.89R
MACOMB         MOSUNNY   54  46  74 N16       29.96R
MATTOON        CLOUDY    57  48  72 N20       29.81R
MT CARMEL AP   CLOUDY    62  53  72 W8        29.79R
OLNEY-NOBLE AP CLOUDY    61  55  82 W7        29.80R
PARIS          PTSUNNY   58  55  89 CALM      29.80R
PEORIA         CLOUDY    52  44  74 N8G23     29.91R
PONTIAC        CLOUDY    53  48  84 N18       29.88R
RANTOUL        CLOUDY    56  49  75 N16G22    29.84R
ROBINSON       CLOUDY    60  55  82 W6        29.79R
SPRINGFIELD    CLOUDY    57  46  66 N17       29.89R
TAYLORVILLE    PTSUNNY   57  46  67 N14G20    29.87R
$$

...REGIONAL REPORTS...


CITY           SKY/WX    TMP DP  RH WIND       PRES   REMARKS
CHICAGO O`HARE PTSUNNY   52  46  80 N14       29.86R
KANKAKEE       CLOUDY    54  47  75 NW9       29.84R
MOLINE         CLOUDY    53  45  74 N12G21    29.94R
MOUNT STERLING MOSUNNY   54  44  67 N17G25    29.93R
MOUNT VERNON   CLOUDY    59  52  77 CALM      29.82R
PITTSFIELD     PTSUNNY   57  47  69 N16       29.93R
QUINCY         LGT RAIN  55  45  68 N16G25    29.94R
ROCKFORD       DRIZZLE   51  48  89 N10       29.92R
$$


CITY           SKY/WX    TMP DP  RH WIND       PRES   REMARKS
BURLINGTON     CLOUDY    53  44  71 N17       29.96R
CEDAR RAPIDS   CLOUDY    52  47  83 N16       29.98R
DES MOINES     CLOUDY    54  44  69 N16       30.05R
KIRKSVILLE     MOSUNNY   53  43  68 N18G26    30.00R
OTTUMWA        CLOUDY   N/A N/A N/A N14       30.00R
ST LOUIS       CLOUDY    64  46  52 N18       29.87R
$$


CITY           SKY/WX    TMP DP  RH WIND       PRES   REMARKS
TERRE HAUTE    CLOUDY    61  54  77 CALM      29.78R
EVANSVILLE     CLOUDY    63  52  67 SW7       29.81R
INDIANAPOLIS   TSTM      59  56  89 E8        29.79F
LAFAYETTE      MOSUNNY   55  51  86 N3        29.80R
MADISON        CLOUDY    51  50  96 N8        29.91R
MILWAUKEE      PTSUNNY   56  49  77 N13       29.88R
$$






USA.gov is the U.S. government's official web portal to all federal, state and local government web resources and services.